WORLDVIEW-3 (WV-3)

Last updated on Wed Jul 02 2025 00:02:29 GMT+0000 (Coordinated Universal Time)

1 40115U 14048A 25182.52320139 .00000724 00000+0 91139-4 0 9990 2 40115 97.8775 256.7677 0005639 32.7403 327.4160 14.85005416589861
UTC large
Height (km)
Speed (km/s)
/
Latitude / Longitude
Inclination (degrees)
Orbital Period (minutes)
Azimuth
Elevation
Range (km)
Doppler Factor

Next 0 passes for location: London (51.5072 / 0.1276)

Sorry there are no passes over London.